Stations météo

réclame
Mon MeteoGroup
Ornskoldsvik Airport, Suède (2267): Température de l'air & dewpoint: 15.05.2018 19:00:00 - 21.05.2018 19:00:00 (CEST)Ornskoldsvik Airport, Suède (2267): Vitesse du vent: 15.05.2018 19:00:00 - 21.05.2018 19:00:00 (CEST)Ornskoldsvik Airport, Suède (2267): Direction du vent: 15.05.2018 19:00:00 - 21.05.2018 19:00:00 (CEST)Ornskoldsvik Airport, Suède (2267): reduced air pressure: 15.05.2018 19:00:00 - 21.05.2018 19:00:00 (CEST)Ornskoldsvik Airport, Suède (2267): visibility: 15.05.2018 19:00:00 - 21.05.2018 19:00:00 (CEST)
Date & Time tt [°C] td [°C] ff [km/h] ff [knt] dd ppp [hPa] vv [km]
21.05.2018 19:00:00 20,0 9,0 15 8 S - 10
21.05.2018 18:00:00 21,0 6,9 13 7 SSW 1021,2 10
21.05.2018 17:00:00 23,0 5,4 15 8 SSE 1021,1 10
21.05.2018 16:00:00 23,3 5,2 15 8 SSE 1021,3 10
21.05.2018 15:00:00 22,9 4,4 16 9 S 1021,3 10
21.05.2018 14:00:00 23,5 2,9 21 11 SSE 1021,3 10
21.05.2018 13:00:00 - - - - - - -
21.05.2018 12:00:00 - - - - - - -
21.05.2018 11:00:00 - - - - - - -
21.05.2018 10:00:00 23,0 0,0 4 2 - - 10
21.05.2018 09:00:00 21,3 1,5 9 5 WNW 1021,0 10
21.05.2018 08:00:00 19,7 2,5 11 6 W 1020,9 10
21.05.2018 07:00:00 18,2 2,9 11 6 W 1020,7 10
21.05.2018 06:00:00 12,4 4,9 11 6 W 1020,5 10
21.05.2018 05:00:00 6,7 4,2 8 4 WNW 1020,1 10
21.05.2018 04:00:00 3,4 2,5 5 3 WSW 1020,1 10
21.05.2018 03:00:00 4,6 4,2 5 3 NW 1019,9 10
21.05.2018 02:00:00 4,3 3,4 5 3 WNW 1019,6 10
21.05.2018 01:00:00 5,6 5,0 4 2 WNW 1019,7 10
21.05.2018 00:00:00 6,9 5,7 0 0 N 1019,5 10
20.05.2018 23:00:00 8,0 5,8 4 2 - 1019,5 10
20.05.2018 22:00:00 8,9 6,3 4 2 - 1019,7 10
20.05.2018 21:00:00 10,6 6,7 5 3 ENE 1019,3 10
20.05.2018 20:00:00 12,1 6,8 9 5 ESE 1019,0 10
20.05.2018 19:00:00 13,9 6,7 9 5 E 1019,0 10
20.05.2018 18:00:00 16,2 6,6 9 5 SSE 1019,6 10
20.05.2018 17:00:00 16,2 7,1 11 6 S 1019,9 10
20.05.2018 16:00:00 17,1 4,7 11 6 S 1020,1 10
20.05.2018 15:00:00 18,3 4,1 9 5 S 1020,2 10
20.05.2018 14:00:00 17,2 2,8 11 6 S 1020,4 10
20.05.2018 13:00:00 16,1 3,5 11 6 SSE 1020,7 10
20.05.2018 12:00:00 15,9 2,0 15 8 S 1021,2 10
20.05.2018 11:00:00 15,9 4,0 16 9 SE 1021,7 10
20.05.2018 10:00:00 16,0 3,7 18 10 ESE 1021,8 10
20.05.2018 09:00:00 15,6 4,9 13 7 ESE 1022,4 10
20.05.2018 08:00:00 14,4 5,5 5 3 SSE 1022,4 10
20.05.2018 07:00:00 12,6 5,0 0 0 N 1022,6 10
20.05.2018 06:00:00 8,3 4,5 5 3 NW 1022,9 10
20.05.2018 05:00:00 5,0 2,2 5 3 WNW 1022,8 10
20.05.2018 04:00:00 4,8 2,3 5 3 WNW 1022,6 10
20.05.2018 03:00:00 6,1 2,9 4 2 W 1022,6 10
20.05.2018 02:00:00 6,8 2,5 8 4 NW 1021,9 10
20.05.2018 01:00:00 6,8 2,7 9 5 NW 1021,9 10
20.05.2018 00:00:00 7,1 4,1 5 3 WNW 1021,6 10
19.05.2018 23:00:00 7,8 3,1 8 4 WNW 1021,3 10
19.05.2018 22:00:00 11,8 3,0 5 3 WNW 1020,7 10
19.05.2018 21:00:00 16,1 1,8 9 5 NNW 1020,2 10
19.05.2018 20:00:00 15,0 3,8 5 3 SSE 1019,5 10
19.05.2018 19:00:00 16,0 3,1 8 4 S 1019,3 10
19.05.2018 18:00:00 16,3 2,0 18 10 S 1019,2 10
19.05.2018 17:00:00 16,2 1,1 18 10 S 1018,9 10
19.05.2018 16:00:00 16,6 0,7 21 11 S 1018,8 10
19.05.2018 15:00:00 16,3 0,4 21 11 S 1019,1 10
19.05.2018 14:00:00 16,5 0,2 18 10 S 1019,2 10
19.05.2018 13:00:00 16,8 0,0 13 7 SW 1019,4 10
19.05.2018 12:00:00 16,8 -1,3 9 5 W 1019,9 10
19.05.2018 11:00:00 15,4 -1,2 11 6 W 1020,3 10
19.05.2018 10:00:00 14,6 -1,9 13 7 WSW 1020,7 10
19.05.2018 09:00:00 13,9 -2,5 13 7 WSW 1020,7 10
19.05.2018 08:00:00 12,7 -0,6 4 2 - 1020,9 10
19.05.2018 07:00:00 9,7 0,6 4 2 - 1021,0 10
19.05.2018 06:00:00 7,4 -0,3 5 3 NW 1021,0 10
19.05.2018 05:00:00 5,0 -1,0 5 3 NNW 1021,1 10
19.05.2018 04:00:00 3,5 -1,8 8 4 NNW 1021,1 10
19.05.2018 03:00:00 2,0 -1,6 8 4 NW 1021,1 10
19.05.2018 02:00:00 2,4 -1,6 5 3 NW 1021,1 10
19.05.2018 01:00:00 3,9 -1,7 5 3 NW 1020,9 10
19.05.2018 00:00:00 4,7 -1,7 8 4 NNW 1020,8 10
18.05.2018 23:00:00 7,0 -1,9 8 4 NNW 1020,4 10
18.05.2018 22:00:00 8,1 -2,5 5 3 NNW 1020,1 10
18.05.2018 21:00:00 12,4 -3,4 8 4 N 1019,6 10
18.05.2018 20:00:00 14,1 -4,1 13 7 N 1019,1 10
18.05.2018 19:00:00 15,0 -4,4 16 9 NW 1018,7 10
18.05.2018 18:00:00 15,3 -4,1 15 8 NNW 1018,7 10
18.05.2018 17:00:00 15,2 -4,2 16 9 NNW 1018,6 10
18.05.2018 16:00:00 15,4 -4,0 21 11 NNW 1018,4 10
18.05.2018 15:00:00 16,1 -3,4 16 9 NNW 1018,2 10
18.05.2018 14:00:00 15,6 -2,9 22 12 NW 1018,2 10
18.05.2018 13:00:00 14,3 -3,1 22 12 NW 1018,4 10
18.05.2018 12:00:00 13,9 -2,1 21 11 NW 1018,5 10
18.05.2018 11:00:00 13,3 -1,5 18 10 NW 1018,7 10
18.05.2018 10:00:00 12,5 -1,4 18 10 NW 1018,7 10
18.05.2018 09:00:00 11,2 -0,6 18 10 NNW 1018,7 10
18.05.2018 08:00:00 10,0 -1,7 18 10 NNW 1018,7 10
18.05.2018 07:00:00 8,4 -3,2 16 9 NW 1018,5 10
18.05.2018 06:00:00 7,1 -3,2 18 10 NW 1018,4 10
18.05.2018 05:00:00 6,4 -3,0 15 8 NNW 1018,5 10
18.05.2018 04:00:00 5,7 -3,4 18 10 NW 1018,2 10
18.05.2018 03:00:00 5,5 -3,6 16 9 NW 1018,1 10
18.05.2018 02:00:00 5,7 -2,9 15 8 WNW 1017,9 10
18.05.2018 01:00:00 4,5 -2,6 9 5 NW 1018,0 10
18.05.2018 00:00:00 4,2 -0,8 8 4 NW 1018,1 10
17.05.2018 23:00:00 5,4 0,0 8 4 NNW 1018,1 10
17.05.2018 22:00:00 7,9 -0,6 5 3 NW 1017,8 10
17.05.2018 21:00:00 12,5 -1,4 5 3 - 1017,5 10
17.05.2018 20:00:00 13,8 -1,8 11 6 N 1017,1 10
17.05.2018 19:00:00 13,8 -1,4 9 5 NNW 1017,3 10
17.05.2018 18:00:00 14,4 -1,3 9 5 NW 1017,3 10
17.05.2018 17:00:00 14,9 -2,1 11 6 NNW 1017,3 10
17.05.2018 16:00:00 13,5 -2,1 13 7 N 1017,8 10
17.05.2018 15:00:00 12,2 -1,7 16 9 N 1018,3 10
17.05.2018 14:00:00 11,3 0,4 16 9 NNW 1018,4 10
17.05.2018 13:00:00 13,2 -1,2 15 8 NNW 1018,8 10
17.05.2018 12:00:00 13,5 -0,5 21 11 NW 1018,8 10
17.05.2018 11:00:00 13,1 -0,2 15 8 N 1019,3 10
17.05.2018 10:00:00 11,3 -0,2 15 8 N 1019,5 10
17.05.2018 09:00:00 10,4 -0,1 18 10 N 1019,8 10
17.05.2018 08:00:00 8,6 -0,4 18 10 NNW 1020,0 10
17.05.2018 07:00:00 7,8 -0,9 18 10 NNW 1019,8 10
17.05.2018 06:00:00 7,5 -0,5 21 11 NNW 1018,9 10
17.05.2018 05:00:00 7,4 0,6 16 9 N 1018,8 10
17.05.2018 04:00:00 8,0 1,4 15 8 NNW 1019,8 10
17.05.2018 03:00:00 8,0 3,5 16 9 NW 1019,8 10
17.05.2018 02:00:00 9,3 1,9 21 11 NNW 1018,7 10
17.05.2018 01:00:00 10,8 0,5 26 14 NNW 1017,8 10
17.05.2018 00:00:00 12,3 1,9 28 15 NNW 1018,1 10
16.05.2018 23:00:00 13,3 3,9 26 14 NW 1017,5 10
16.05.2018 22:00:00 14,7 4,9 26 14 NW 1016,6 10
16.05.2018 21:00:00 16,2 5,5 26 14 NW 1015,7 10
16.05.2018 20:00:00 17,5 7,0 28 15 WNW 1014,9 10
16.05.2018 19:00:00 20,4 7,1 31 17 WNW 1013,9 10
16.05.2018 18:00:00 22,5 2,6 15 8 SSW 1013,2 10
16.05.2018 17:00:00 23,1 0,2 18 10 SSW 1013,0 10
16.05.2018 16:00:00 23,6 0,6 16 9 S 1013,3 10
16.05.2018 15:00:00 23,4 1,7 18 10 S 1013,4 10
16.05.2018 14:00:00 23,7 1,9 16 9 S 1013,6 10
16.05.2018 13:00:00 23,5 4,9 15 8 S 1013,9 10
16.05.2018 12:00:00 23,6 5,0 11 6 SSE 1014,2 10
16.05.2018 11:00:00 22,8 3,8 8 4 S 1014,6 10
16.05.2018 10:00:00 21,5 4,1 5 3 SSE 1015,0 10
16.05.2018 09:00:00 19,4 6,8 5 3 ESE 1015,2 10
16.05.2018 08:00:00 16,5 8,2 5 3 E 1015,6 10
16.05.2018 07:00:00 14,8 7,6 2 1 - 1016,0 10
16.05.2018 06:00:00 10,2 7,1 4 2 NW 1016,5 10
16.05.2018 05:00:00 5,9 4,1 4 2 NNW 1017,1 10
16.05.2018 04:00:00 6,0 5,3 5 3 NNW 1017,4 10
16.05.2018 03:00:00 5,9 4,9 5 3 NW 1017,8 10
16.05.2018 02:00:00 6,3 5,1 5 3 NW 1017,9 10
16.05.2018 01:00:00 6,5 5,1 5 3 NNW 1018,1 10
16.05.2018 00:00:00 7,4 5,5 4 2 NNW 1018,4 10
15.05.2018 23:00:00 9,1 6,0 4 2 N 1018,6 10
15.05.2018 22:00:00 12,6 6,0 5 3 E 1018,6 10
15.05.2018 21:00:00 15,6 6,3 4 2 ENE 1018,4 10
15.05.2018 20:00:00 18,1 6,3 8 4 E 1018,5 10
15.05.2018 19:00:00 20,2 6,2 13 7 ESE 1018,6 10

tt = Température de l'air
td = dewpoint
ff = Vitesse du vent
dd = Direction du vent
ppp = reduced air pressure
vv = visibility

stations d'obs. à proximité